Weather History for Grayling, MI

Change the Weather History Date:

Thursday, June 6, 2013

  Actual Average (KHTL) Record (KHTL)
Temperature  
Mean Temperature 57 °F 60 °F  
Max Temperature 68 °F 73 °F 95 °F (1925)
Min Temperature 45 °F 48 °F 28 °F (1927)
Degree Days  
Heating Degree Days 8 6  
Month to date heating degree days 39  
Since 1 June heating degree days 39  
Since 1 July heating degree days 8058  
Cooling Degree Days 0 1  
Month to date cooling degree days 6  
Year to date cooling degree days 22  
Since 1 June cooling degree days 6  
Growing Degree Days 7 (Base 50)    
Moisture  
Dew Point 40 °F    
Average Humidity 55    
Maximum Humidity 93    
Minimum Humidity 30    
Precipitation  
Precipitation 0.00 in 0.11 in 1.60 in (1930)
Month to date precipitation 0.64  
Year to date precipitation 10.50  
Sea Level Pressure  
Sea Level Pressure 30.01 in    
Wind  
Wind Speed 6 mph (ENE)    
Max Wind Speed 16 mph    
Max Gust Speed 22 mph    
Visibility 10 miles    
Events      
T = Trace of Precipitation, MM = Missing Value Source: NWS Daily Summary

Daily Weather History Graph

Daily Weather History Graph

Search for Another Location

Airport:

Trip Planner

Search our weather history database for the weather conditions in past years. The results will help you decide how hot, cold, wet, or windy it might be!

Date:

Astronomy

Jun. 06, 2013 Rise Set
Actual Time 5:54 AM EDT 9:21 PM EDT
Civil Twilight 5:17 AM EDT 9:57 PM EDT
Nautical Twilight 4:30 AM EDT 10:45 PM EDT
Astronomical Twilight 3:28 AM EDT 11:47 PM EDT
Moon 4:39 AM EDT (6/6) 7:38 PM EDT (6/6)
Length of Visible Light 16h 40m
Length of Day
15h 27m
Waning Crescent, 4% of the Moon is Illuminated
Jun 6
Waning Crescent
Jun 8
New
Jun 16
First Quarter
Jun 23
Full
Jun 30
Last Quarter

Hourly Weather History & Observations

Time (EDT) Temp. Dew Point Humidity Pressure Visibility Wind Dir Wind Speed Gust Speed Precip Events Conditions
12:15 AM 53.1 °F 42.6 °F 68% 30.11 in 10.0 mi Calm Calm - N/A   Overcast
12:35 AM 50.9 °F 40.8 °F 68% 30.11 in 10.0 mi East 5.8 mph - N/A   Overcast
12:54 AM 50.9 °F 41.4 °F 70% 30.10 in 10.0 mi East 6.9 mph - N/A   Overcast
1:15 AM 50.9 °F 41.5 °F 70% 30.10 in 10.0 mi East 5.8 mph - N/A   Overcast
1:35 AM 50.9 °F 41.9 °F 71% 30.09 in 10.0 mi East 4.6 mph - N/A   Overcast
1:54 AM 50.9 °F 41.9 °F 71% 30.09 in 10.0 mi East 5.8 mph - N/A   Overcast
2:15 AM 50.9 °F 41.9 °F 71% 30.09 in 10.0 mi East 5.8 mph - N/A   Overcast
2:35 AM 50.9 °F 41.9 °F 71% 30.08 in 10.0 mi East 8.1 mph - N/A   Overcast
2:54 AM 50.2 °F 41.4 °F 72% 30.08 in 10.0 mi East 5.8 mph - N/A   Overcast
3:15 AM 49.8 °F 41.2 °F 72% 30.08 in 10.0 mi East 5.8 mph - N/A   Overcast
3:35 AM 49.5 °F 41.4 °F 74% 30.07 in 10.0 mi East 5.8 mph - N/A   Mostly Cloudy
3:54 AM 49.3 °F 40.5 °F 72% 30.06 in 10.0 mi East 5.8 mph - N/A   Mostly Cloudy
4:15 AM 49.3 °F 40.3 °F 71% 30.05 in 10.0 mi East 4.6 mph - N/A   Mostly Cloudy
4:35 AM 48.6 °F 39.7 °F 72% 30.04 in 10.0 mi East 3.5 mph - N/A   Mostly Cloudy
4:54 AM 48.6 °F 40.1 °F 73% 30.04 in 10.0 mi NE 3.5 mph - N/A   Overcast
5:15 AM 48.4 °F 40.3 °F 74% 30.03 in 10.0 mi NE 4.6 mph - N/A   Mostly Cloudy
5:35 AM 48.4 °F 39.2 °F 71% 30.04 in 10.0 mi ENE 3.5 mph - N/A   Scattered Clouds
5:54 AM 48.4 °F 38.1 °F 68% 30.04 in 10.0 mi ENE 5.8 mph - N/A   Scattered Clouds
6:15 AM 48.4 °F 37.0 °F 65% 30.03 in 10.0 mi ENE 3.5 mph - N/A   Mostly Cloudy
6:35 AM 48.4 °F 36.5 °F 64% 30.03 in 10.0 mi ENE 3.5 mph - N/A   Overcast
6:54 AM 49.5 °F 37.0 °F 62% 30.03 in 10.0 mi ENE 3.5 mph - N/A   Scattered Clouds
7:15 AM 50.4 °F 37.8 °F 62% 30.03 in 10.0 mi ENE 5.8 mph - N/A   Mostly Cloudy
7:34 AM 50.9 °F 38.1 °F 62% 30.03 in 10.0 mi NE 3.5 mph - N/A   Scattered Clouds
7:55 AM 53.6 °F 39.2 °F 58% 30.03 in 10.0 mi ENE 4.6 mph - N/A   Mostly Cloudy
8:15 AM 53.6 °F 38.8 °F 57% 30.03 in 10.0 mi ENE 5.8 mph - N/A   Overcast
8:34 AM 53.8 °F 38.7 °F 57% 30.03 in 10.0 mi ENE 3.5 mph - N/A   Overcast
8:55 AM 55.8 °F 40.3 °F 56% 30.02 in 10.0 mi East 5.8 mph - N/A   Overcast
9:15 AM 56.3 °F 40.1 °F 55% 30.02 in 10.0 mi ENE 9.2 mph - N/A   Overcast
9:34 AM 58.5 °F 41.7 °F 54% 30.01 in 10.0 mi East 8.1 mph - N/A   Scattered Clouds
9:55 AM 58.5 °F 40.8 °F 52% 30.01 in 10.0 mi East 8.1 mph - N/A   Scattered Clouds
10:15 AM 58.5 °F 41.2 °F 53% 30.01 in 10.0 mi NE 9.2 mph - N/A   Scattered Clouds
10:34 AM 59.0 °F 41.2 °F 52% 30.01 in 10.0 mi NE 11.5 mph - N/A   Scattered Clouds
10:55 AM 60.1 °F 42.1 °F 51% 30.01 in 10.0 mi NE 10.4 mph 17.3 mph N/A   Clear
11:14 AM 60.8 °F 41.5 °F 49% 30.01 in 10.0 mi ENE 15.0 mph 18.4 mph N/A   Scattered Clouds
11:35 AM 60.3 °F 40.5 °F 48% 30.01 in 10.0 mi NE 15.0 mph 19.6 mph N/A   Mostly Cloudy
11:55 AM 60.1 °F 40.3 °F 48% 30.01 in 10.0 mi ENE 11.5 mph 17.3 mph N/A   Mostly Cloudy
12:14 PM 61.5 °F 39.7 °F 45% 30.02 in 10.0 mi East 11.5 mph 17.3 mph N/A   Mostly Cloudy
12:35 PM 61.9 °F 40.5 °F 45% 30.01 in 10.0 mi East 12.7 mph - N/A   Scattered Clouds
12:55 PM 65.1 °F 40.6 °F 41% 30.01 in 10.0 mi East 11.5 mph - N/A   Clear
1:14 PM 65.3 °F 39.2 °F 38% 30.00 in 10.0 mi East 10.4 mph - N/A   Clear
1:35 PM 68.5 °F 40.6 °F 36% 29.99 in 10.0 mi NE 12.7 mph - N/A   Clear
1:55 PM 65.5 °F 37.2 °F 35% 29.99 in 10.0 mi East 11.5 mph 17.3 mph N/A   Clear
2:14 PM 68.5 °F 40.3 °F 36% 29.99 in 10.0 mi East 9.2 mph - N/A   Clear
2:35 PM 68.5 °F 35.8 °F 30% 29.99 in 10.0 mi East 11.5 mph 18.4 mph N/A   Clear
2:55 PM 68.4 °F 38.7 °F 34% 29.98 in 10.0 mi East 12.7 mph 16.1 mph N/A   Clear
3:14 PM 67.1 °F 38.5 °F 35% 29.98 in 10.0 mi ENE 12.7 mph 19.6 mph N/A   Clear
3:35 PM 67.5 °F 40.5 °F 37% 29.98 in 10.0 mi East 12.7 mph - N/A   Clear
3:55 PM 68.5 °F 39.0 °F 34% 29.97 in 10.0 mi East 9.2 mph - N/A   Scattered Clouds
4:14 PM 68.5 °F 38.5 °F 33% 29.97 in 10.0 mi ENE 12.7 mph 16.1 mph N/A   Scattered Clouds
4:35 PM 68.5 °F 38.7 °F 34% 29.97 in 10.0 mi ENE 10.4 mph - N/A   Scattered Clouds
4:55 PM 68.5 °F 37.8 °F 32% 29.96 in 10.0 mi East 10.4 mph 16.1 mph N/A   Scattered Clouds
5:14 PM 68.5 °F 36.5 °F 31% 29.96 in 10.0 mi East 9.2 mph - N/A   Clear
5:35 PM 68.5 °F 37.4 °F 32% 29.97 in 10.0 mi East 11.5 mph - N/A   Clear
5:55 PM 68.2 °F 37.6 °F 33% 29.97 in 10.0 mi ENE 11.5 mph 17.3 mph N/A   Clear
6:15 PM 68.5 °F 38.1 °F 33% 29.97 in 10.0 mi East 10.4 mph 17.3 mph N/A   Clear
6:35 PM 66.2 °F 37.0 °F 34% 29.96 in 10.0 mi ENE 11.5 mph - N/A   Clear
6:54 PM 66.2 °F 39.2 °F 37% 29.97 in 10.0 mi NE 11.5 mph - N/A   Clear
7:15 PM 66.2 °F 39.2 °F 37% 29.97 in 10.0 mi ENE 16.1 mph 21.9 mph N/A   Clear
7:35 PM 65.7 °F 40.1 °F 39% 29.97 in 10.0 mi East 13.8 mph - N/A   Clear
7:54 PM 63.9 °F 40.6 °F 43% 29.97 in 10.0 mi East 13.8 mph 18.4 mph N/A   Clear
8:15 PM 61.2 °F 40.1 °F 46% 29.98 in 10.0 mi East 12.7 mph - N/A   Clear
8:35 PM 60.6 °F 41.2 °F 49% 29.98 in 10.0 mi East 8.1 mph - N/A   Clear
8:54 PM 58.5 °F 41.2 °F 53% 29.98 in 10.0 mi East 5.8 mph - N/A   Clear
9:15 PM 56.3 °F 41.4 °F 57% 29.98 in 10.0 mi East 8.1 mph - N/A   Clear
9:35 PM 55.9 °F 41.9 °F 59% 29.99 in 10.0 mi East 6.9 mph - N/A   Clear
9:54 PM 55.4 °F 42.6 °F 62% 29.99 in 10.0 mi East 3.5 mph - N/A   Clear
10:15 PM 53.6 °F 41.9 °F 65% 29.99 in 10.0 mi Calm Calm - N/A   Clear
10:35 PM 51.1 °F 41.5 °F 70% 29.99 in 10.0 mi Calm Calm - N/A   Clear
10:54 PM 48.9 °F 42.3 °F 78% 30.00 in 10.0 mi Calm Calm - N/A   Mostly Cloudy
11:15 PM 49.1 °F 43.0 °F 79% 29.99 in 10.0 mi Calm Calm - N/A   Mostly Cloudy
11:35 PM 46.0 °F 43.3 °F 90% 29.99 in 10.0 mi Calm Calm - N/A   Scattered Clouds
11:54 PM 45.9 °F 43.9 °F 93% 29.99 in 10.0 mi Calm Calm - N/A   Clear